Regional Weather Roundup
Issued by NWS

Home | Current Version | Previous Version | Graphics & Text | Print | Product List | Glossary On
Versions: 1 2 3 4 5 6 7 8 9 10 11 12 13 14 15 16 17 18 19 20 21 22 23 24 25 26 27 28 29 30 31 32 33 34 35 36 37 38 39 40 41 42 43 44 45 46 47 48 49 50
000
ASUS45 KABQ 070710
RWRNM
NEW MEXICO REGIONAL WEATHER ROUNDUP
NATIONAL WEATHER SERVICE ALBUQUERQUE NM
1200 AM MST SUN FEB 07 2016

NOTE: "FAIR" MEANS FEW OR NO CLOUDS BELOW 12,000 FEET AGL WITH NO
       SIGNIFICANT WEATHER OR OBSTRUCTIONS TO VISION.

      THIS PRODUCT IS RELEASED AS TWO VERSIONS.  ONE VERSION NEAR
      THE TOP OF THE HOUR CONTAINING PRELIMINARY DATA FROM ALBUQUERQUE
      AND OTHER STATIONS.  A FINAL VERSION WITH ADDITIONAL DATA IS
      ISSUED ABOUT 10 MINUTES AFTER THE HOUR.

NMZ501-503-504-510>518-070800-
NORTHWEST PLATEAU/NORTHCENTRAL MOUNTAINS

CITY           SKY/WX    TMP DP  RH WIND       PRES   REMARKS
FARMINGTON     CLOUDY    21  16  81 NE5       30.42R WCI  15
LOS ALAMOS     CLOUDY    31  14  50 CALM      30.34S
SANTA FE       CLOUDY    28  15  58 NW8       30.33R WCI  20
TAOS           CLOUDY     9   7  92 N3        30.37S
ANGEL FIRE     FAIR       6   1  81 NE3       30.34S

$$
NMZ402-403-502-505>509-070800-
WESTCENTRAL MOUNTAINS/SOUTHWEST MOUNTAINS

CITY           SKY/WX    TMP DP  RH WIND       PRES   REMARKS
GALLUP         CLEAR     22  16  78 CALM      30.42R
GRANTS         CLEAR     18  11  76 NW7       30.43R WCI   8
SILVER CITY      N/A     27  14  59 N12       30.36F WCI  16

$$
NMZ407-409-411-412-070800-
SOUTHERN DESERTS

CITY           SKY/WX    TMP DP  RH WIND       PRES   REMARKS
LORDSBURG      FAIR      32   9  37 S7        30.33S WCI  26
DEMING         CLEAR     25   4  40 NW3       30.35R
LAS CRUCES     PTCLDY    33   3  29 NW9       30.34F WCI  25
HOLLOMAN AFB   CLEAR     32   5  32 CALM      30.32F
ALAMOGORDO     CLOUDY    34   3  27 NE6       30.33F WCI  29
T OR C         CLEAR     32   5  32 W8        30.34F WCI  25

$$
NMZ519>523-070800-
CENTRAL VALLEYS/CENTRAL HIGHLANDS

CITY           SKY/WX    TMP DP  RH WIND       PRES   REMARKS
ALBUQUERQUE    CLOUDY    38  14  37 N10G22    30.38R WCI  31
DOUBLE EAGLE   CLOUDY    27  14  58 NW9       30.37S WCI  17
MORIARTY ARPT  FAIR      27  14  57 N8        30.33R WCI  19
CLINES CORNERS CLOUDY    27  15  61 NW18      30.25F WCI  14
BELEN          FAIR      26  13  57 CALM      30.37S
SOCORRO        FAIR      30   7  38 N5        30.36F WCI  25

$$
NMZ524>526-539-540-070800-
SOUTHCENTRAL MOUNTAINS

CITY           SKY/WX    TMP DP  RH WIND       PRES   REMARKS
RUIDOSO          N/A     34   3  27 NW13      30.33F WCI  25

$$
NMZ527>531-070800-
NORTHEAST HIGHLANDS/NORTHEAST PLAINS

CITY           SKY/WX    TMP DP  RH WIND       PRES   REMARKS
LAS VEGAS      CLOUDY    36  14  40 N12       30.21R WCI  28
RATON          CLOUDY    21  14  74 NE7       30.20S WCI  12
CLAYTON        CLOUDY    34  12  40 W13       30.13F WCI  25

$$
NMZ532>537-070800-
EASTCENTRAL PLAINS

CITY           SKY/WX    TMP DP  RH WIND       PRES   REMARKS
TUCUMCARI      CLOUDY    28  15  58 W10       30.13S WCI  19
CANNON AFB     CLOUDY    37  13  36 W12       30.13F WCI  30
CLOVIS AIRPORT CLOUDY    30  10  43 W5        30.15F WCI  25

$$
NMZ028-029-538-070800-
SOUTHEAST PLAINS

CITY           SKY/WX    TMP DP  RH WIND       PRES   REMARKS
ROSWELL        CLOUDY    35  12  38 W3        30.20F
ARTESIA        CLOUDY    36  10  35 CALM      30.22F
CARLSBAD       CLOUDY    49   6  17 W8        30.21F
HOBBS          CLOUDY    32   7  34 SW6       30.23F WCI  26


$$



USA.gov is the U.S. government's official web portal to all federal, state and local government web resources and services.